Regional Weather Roundup
Issued by NWS

Home | Current Version | Previous Version | Graphics & Text | Print | Product List | Glossary On
Versions: 1 2 3 4 5 6 7 8 9 10 11 12 13 14 15 16 17 18 19 20 21 22 23 24 25 26 27
000
ASUS45 KCYS 172210
RWRWY

WYOMING REGIONAL WEATHER ROUNDUP
NATIONAL WEATHER SERVICE CHEYENNE WY
300 PM MST SUN DEC 17 2017

NOTE:  "FAIR" INDICATES FEW OR NO CLOUDS BELOW 12,000 FEET
WITH NO SIGNIFICANT WEATHER AND/OR OBSTRUCTIONS TO VISIBILITY.

WYZ001-172300-
YELLOWSTONE NATIONAL PARK

CITY           SKY/WX    TMP DP  RH WIND       PRES   REMARKS
LK YELLOWSTONE   N/A     14  10  84 VRB3      30.04S
W YELLOWSTONE  NOT AVBL

$$
WYZ002>013-054>058-071-098>099-172300-
NORTHERN WYOMING

CITY           SKY/WX    TMP DP  RH WIND       PRES   REMARKS
JACKSON        CLOUDY    25  14  63 S12       30.07R WCI  14
CODY           FAIR      33  16  49 W7        29.84F WCI  27
GREYBULL       FAIR      28  24  85 SE7       29.90F WCI  21
WORLAND        FAIR      20  19  96 S3        29.90S
SHERIDAN         N/A     20  19  96 S3        29.83F
BUFFALO        FAIR      32  18  56 CALM      29.81S
GILLETTE       FAIR      30  22  72 W8        29.81R WCI  22
HULETT         FAIR      32  23  69 SW16      29.82S WCI  21
NEWCASTLE      FAIR      32  23  69 CALM      29.85R

$$
WYZ014>020-022>026-101>103-172300-
CENTRAL WYOMING

CITY           SKY/WX    TMP DP  RH WIND       PRES   REMARKS
BIG PINEY      FAIR      30  10  43 N21       29.99S WCI  17
PINEDALE       FAIR      23  12  63 NW23      29.98R WCI   7
DUBOIS         FAIR      23  14  68 NW25G38   29.90F HAZE    WCI   7
LANDER         FAIR      31  20  63 SW5       29.86R WCI  26
RIVERTON       FAIR      30  21  69 SW5       29.87R WCI  25
CASPER         FAIR      31  16  54 W13       29.86R WCI  21
DOUGLAS        FAIR      38  14  37 W23       29.82R WCI  27

$$
WYZ021-027>030-104>119-172300-
SOUTHERN WYOMING

CITY           SKY/WX    TMP DP  RH WIND       PRES   REMARKS
EVANSTON       PTSUNNY   27  16  63 SW14      30.08S WCI  16
FORT BRIDGER   CLOUDY    29  16  57 W20G29    30.08R WCI  17
ROCK SPRINGS   FAIR      28  13  53 W25       29.99F WCI  13
DIXON          FAIR      34  19  55 SW5       30.04S WCI  30
RAWLINS        FAIR      31  12  45 W20G32    29.94R WCI  19
SARATOGA       FAIR      30  19  64 W17       29.97R WCI  18
LARAMIE        FAIR      32  16  51 W20       29.85S WCI  20
CHEYENNE       FAIR      39  19  44 W26G37    29.84F WCI  28
TORRINGTON     FAIR      47  18  31 W20       29.81F
PINE BLUFFS    FAIR      37  27  65 MISG      29.86F

$$




USA.gov is the U.S. government's official web portal to all federal, state and local government web resources and services.